Time,TemperatureF,DewpointF,PressureIn,WindDirection,WindDirectionDegrees,WindSpeedMPH,WindSpeedGustMPH,Humidity,HourlyPrecipIn,Conditions,Clouds,dailyrainin,SoftwareType,DateUTC
2013-04-02 00:07:00,30.4,15.0,29.77,SW,226,3.0,7.0,52,0.00,,,0.00,weatherlink.com 1.10,2013-04-02 04:07:00,
2013-04-02 00:22:00,30.6,13.0,29.77,NNW,344,10.0,13.0,49,0.00,,,0.00,weatherlink.com 1.10,2013-04-02 04:22:00,
2013-04-02 00:37:00,30.4,13.0,29.77,WSW,258,1.0,10.0,49,0.00,,,0.00,weatherlink.com 1.10,2013-04-02 04:37:00,
2013-04-02 00:52:00,29.8,14.0,29.78,SE,130,1.0,6.0,52,0.00,,,0.00,weatherlink.com 1.10,2013-04-02 04:52:00,
2013-04-02 01:07:00,29.5,14.0,29.78,NNW,340,4.0,6.0,53,0.00,,,0.00,weatherlink.com 1.10,2013-04-02 05:07:00,
2013-04-02 01:22:00,29.3,14.0,29.79,NNE,18,0.0,3.0,54,0.00,,,0.00,weatherlink.com 1.10,2013-04-02 05:22:00,
2013-04-02 01:37:00,28.6,15.0,29.79,SE,131,0.0,2.0,56,0.00,,,0.00,weatherlink.com 1.10,2013-04-02 05:37:00,
2013-04-02 01:52:00,28.4,15.0,29.79,NNE,13,3.0,6.0,58,0.00,,,0.00,weatherlink.com 1.10,2013-04-02 05:52:00,
2013-04-02 02:07:00,28.5,15.0,29.79,WNW,287,1.0,3.0,57,0.00,,,0.00,weatherlink.com 1.10,2013-04-02 06:07:00,
2013-04-02 02:22:00,28.8,15.0,29.79,NNW,328,1.0,3.0,57,0.00,,,0.00,weatherlink.com 1.10,2013-04-02 06:22:00,
2013-04-02 02:37:00,28.5,14.0,29.79,North,11,0.0,2.0,56,0.00,,,0.00,weatherlink.com 1.10,2013-04-02 06:37:00,
2013-04-02 02:52:00,27.9,15.0,29.79,North,357,1.0,3.0,58,0.00,,,0.00,weatherlink.com 1.10,2013-04-02 06:52:00,
2013-04-02 03:07:00,28.1,14.0,29.79,North,357,0.0,6.0,56,0.00,,,0.00,weatherlink.com 1.10,2013-04-02 07:07:00,
2013-04-02 03:22:00,28.0,14.0,29.80,North,351,1.0,6.0,55,0.00,,,0.00,weatherlink.com 1.10,2013-04-02 07:22:00,
2013-04-02 03:37:00,28.0,12.0,29.80,NNE,32,0.0,10.0,51,0.00,,,0.00,weatherlink.com 1.10,2013-04-02 07:37:00,
2013-04-02 03:52:00,27.8,11.0,29.80,NNW,334,0.0,5.0,50,0.00,,,0.00,weatherlink.com 1.10,2013-04-02 07:52:00,
2013-04-02 04:07:00,27.3,12.0,29.80,SW,235,0.0,3.0,53,0.00,,,0.00,weatherlink.com 1.10,2013-04-02 08:07:00,
2013-04-02 04:23:00,27.1,11.0,29.80,NE,35,1.0,4.0,52,0.00,,,0.00,weatherlink.com 1.10,2013-04-02 08:23:00,
2013-04-02 04:38:00,27.1,10.0,29.80,West,280,1.0,7.0,49,0.00,,,0.00,weatherlink.com 1.10,2013-04-02 08:38:00,
2013-04-02 04:53:00,27.0,11.0,29.80,North,349,0.0,7.0,50,0.00,,,0.00,weatherlink.com 1.10,2013-04-02 08:53:00,
2013-04-02 05:08:00,26.7,10.0,29.81,SW,230,0.0,7.0,50,0.00,,,0.00,weatherlink.com 1.10,2013-04-02 09:08:00,
2013-04-02 05:23:00,26.7,10.0,29.81,NNE,13,0.0,4.0,50,0.00,,,0.00,weatherlink.com 1.10,2013-04-02 09:23:00,
2013-04-02 05:38:00,26.2,10.0,29.81,WSW,238,0.0,2.0,51,0.00,,,0.00,weatherlink.com 1.10,2013-04-02 09:38:00,
2013-04-02 05:53:00,25.4,12.0,29.81,WSW,237,0.0,0.0,56,0.00,,,0.00,weatherlink.com 1.10,2013-04-02 09:53:00,
2013-04-02 06:08:00,24.8,12.0,29.82,SW,214,1.0,2.0,58,0.00,,,0.00,weatherlink.com 1.10,2013-04-02 10:08:00,
2013-04-02 06:23:00,24.6,12.0,29.82,WSW,250,1.0,3.0,59,0.00,,,0.00,weatherlink.com 1.10,2013-04-02 10:23:00,
2013-04-02 06:38:00,24.6,12.0,29.82,WSW,242,0.0,6.0,59,0.00,,,0.00,weatherlink.com 1.10,2013-04-02 10:38:00,
2013-04-02 06:53:00,24.7,12.0,29.83,SSW,211,0.0,1.0,59,0.00,,,0.00,weatherlink.com 1.10,2013-04-02 10:53:00,
2013-04-02 07:08:00,25.1,12.0,29.83,WNW,291,1.0,4.0,58,0.00,,,0.00,weatherlink.com 1.10,2013-04-02 11:08:00,
2013-04-02 07:23:00,25.7,12.0,29.83,WSW,250,1.0,3.0,57,0.00,,,0.00,weatherlink.com 1.10,2013-04-02 11:23:00,
2013-04-02 07:38:00,26.3,12.0,29.84,WSW,257,1.0,5.0,55,0.00,,,0.00,weatherlink.com 1.10,2013-04-02 11:38:00,
2013-04-02 07:53:00,26.9,12.0,29.84,WSW,252,1.0,7.0,53,0.00,,,0.00,weatherlink.com 1.10,2013-04-02 11:53:00,
2013-04-02 08:08:00,27.7,12.0,29.84,WNW,295,1.0,4.0,52,0.00,,,0.00,weatherlink.com 1.10,2013-04-02 12:08:00,
2013-04-02 08:23:00,28.4,12.0,29.84,East,79,3.0,11.0,50,0.00,,,0.00,weatherlink.com 1.10,2013-04-02 12:23:00,
2013-04-02 08:38:00,29.4,10.0,29.84,ENE,76,3.0,13.0,45,0.00,,,0.00,weatherlink.com 1.10,2013-04-02 12:38:00,
2013-04-02 08:53:00,29.5,9.0,29.84,West,274,0.0,18.0,43,0.00,,,0.00,weatherlink.com 1.10,2013-04-02 12:53:00,
2013-04-02 09:08:00,30.4,9.0,29.84,West,277,4.0,15.0,41,0.00,,,0.00,weatherlink.com 1.10,2013-04-02 13:08:00,
2013-04-02 09:23:00,31.7,10.0,29.84,South,179,3.0,11.0,41,0.00,,,0.00,weatherlink.com 1.10,2013-04-02 13:23:00,
2013-04-02 09:38:00,32.3,10.0,29.84,NW,316,8.0,11.0,40,0.00,,,0.00,weatherlink.com 1.10,2013-04-02 13:38:00,
2013-04-02 09:53:00,32.7,8.0,29.84,WSW,245,3.0,13.0,35,0.00,,,0.00,weatherlink.com 1.10,2013-04-02 13:53:00,
2013-04-02 10:08:00,34.0,11.0,29.84,WSW,258,4.0,11.0,38,0.00,,,0.00,weatherlink.com 1.10,2013-04-02 14:08:00,
2013-04-02 10:23:00,34.8,10.0,29.83,NNE,18,5.0,10.0,36,0.00,,,0.00,weatherlink.com 1.10,2013-04-02 14:23:00,
2013-04-02 10:38:00,34.5,10.0,29.83,NNW,335,2.0,15.0,36,0.00,,,0.00,weatherlink.com 1.10,2013-04-02 14:38:00,
2013-04-02 10:53:00,34.6,8.0,29.84,NE,56,2.0,16.0,33,0.00,,,0.00,weatherlink.com 1.10,2013-04-02 14:53:00,
2013-04-02 11:08:00,36.3,11.0,29.84,SE,132,2.0,10.0,35,0.00,,,0.00,weatherlink.com 1.10,2013-04-02 15:08:00,
2013-04-02 11:23:00,35.5,13.0,29.83,NNE,27,2.0,10.0,39,0.00,,,0.00,weatherlink.com 1.10,2013-04-02 15:23:00,
2013-04-02 11:38:00,37.4,13.0,29.83,South,188,3.0,13.0,37,0.00,,,0.00,weatherlink.com 1.10,2013-04-02 15:38:00,
2013-04-02 11:53:00,37.4,13.0,29.82,WSW,242,3.0,13.0,36,0.00,,,0.00,weatherlink.com 1.10,2013-04-02 15:53:00,
2013-04-02 12:08:00,37.4,12.0,29.82,NNW,339,11.0,13.0,35,0.00,,,0.00,weatherlink.com 1.10,2013-04-02 16:08:00,
2013-04-02 12:23:00,35.2,13.0,29.83,NNE,30,4.0,10.0,40,0.00,,,0.00,weatherlink.com 1.10,2013-04-02 16:23:00,
2013-04-02 12:39:00,36.3,15.0,29.82,South,191,2.0,10.0,42,0.00,,,0.00,weatherlink.com 1.10,2013-04-02 16:39:00,
2013-04-02 12:53:00,36.6,17.0,29.82,SSW,194,3.0,16.0,46,0.00,,,0.00,weatherlink.com 1.10,2013-04-02 16:53:00,
2013-04-02 13:09:00,36.8,17.0,29.82,WSW,244,3.0,10.0,45,0.00,,,0.00,weatherlink.com 1.10,2013-04-02 17:09:00,
2013-04-02 13:24:00,36.7,20.0,29.82,NNE,16,4.0,8.0,50,0.00,,,0.00,weatherlink.com 1.10,2013-04-02 17:24:00,
2013-04-02 13:39:00,37.7,19.0,29.81,SSE,148,8.0,12.0,47,0.00,,,0.00,weatherlink.com 1.10,2013-04-02 17:39:00,
2013-04-02 13:54:00,36.4,18.0,29.81,North,356,1.0,11.0,47,0.00,,,0.00,weatherlink.com 1.10,2013-04-02 17:54:00,
2013-04-02 14:09:00,35.5,16.0,29.80,WSW,242,1.0,16.0,45,0.00,,,0.00,weatherlink.com 1.10,2013-04-02 18:09:00,
2013-04-02 14:24:00,35.7,17.0,29.80,NNE,14,5.0,-999.0,47,-99.99,,,0.00,weatherlink.com 1.10,2013-04-02 18:24:00,
2013-04-02 14:39:00,36.5,14.0,29.80,West,266,2.0,9.0,40,0.00,,,0.00,weatherlink.com 1.10,2013-04-02 18:39:00,
2013-04-02 14:54:00,36.0,18.0,29.80,South,174,4.0,13.0,48,0.00,,,0.00,weatherlink.com 1.10,2013-04-02 18:54:00,
2013-04-02 15:09:00,36.5,14.0,29.79,East,98,1.0,10.0,39,0.00,,,0.00,weatherlink.com 1.10,2013-04-02 19:09:00,
2013-04-02 15:24:00,36.7,15.0,29.80,NNE,29,4.0,16.0,42,0.00,,,0.00,weatherlink.com 1.10,2013-04-02 19:24:00,
2013-04-02 15:39:00,38.3,16.0,29.79,WNW,302,3.0,16.0,40,0.00,,,0.00,weatherlink.com 1.10,2013-04-02 19:39:00,
2013-04-02 15:54:00,38.5,16.0,29.80,West,275,1.0,13.0,40,0.00,,,0.00,weatherlink.com 1.10,2013-04-02 19:54:00,
2013-04-02 16:09:00,36.5,14.0,29.79,West,264,2.0,15.0,40,0.00,,,0.00,weatherlink.com 1.10,2013-04-02 20:09:00,
2013-04-02 16:24:00,35.8,15.0,29.80,North,350,5.0,9.0,42,0.00,,,0.00,weatherlink.com 1.10,2013-04-02 20:24:00,
2013-04-02 16:39:00,35.3,15.0,29.81,South,183,3.0,11.0,44,0.00,,,0.00,weatherlink.com 1.10,2013-04-02 20:39:00,
2013-04-02 16:54:00,35.1,14.0,29.81,NNE,30,4.0,14.0,42,0.00,,,0.00,weatherlink.com 1.10,2013-04-02 20:54:00,
2013-04-02 17:09:00,34.5,15.0,29.82,WSW,242,3.0,11.0,45,0.00,,,0.00,weatherlink.com 1.10,2013-04-02 21:09:00,
2013-04-02 17:24:00,34.0,14.0,29.82,NNW,336,4.0,8.0,44,0.00,,,0.00,weatherlink.com 1.10,2013-04-02 21:24:00,
2013-04-02 17:39:00,34.5,12.0,29.82,North,5,12.0,13.0,40,0.00,,,0.00,weatherlink.com 1.10,2013-04-02 21:39:00,
2013-04-02 17:54:00,33.4,12.0,29.83,WNW,284,1.0,11.0,41,0.00,,,0.00,weatherlink.com 1.10,2013-04-02 21:54:00,
2013-04-02 18:09:00,33.2,13.0,29.84,WNW,300,6.0,11.0,44,0.00,,,0.00,weatherlink.com 1.10,2013-04-02 22:09:00,
2013-04-02 18:24:00,32.7,14.0,29.85,SSE,154,4.0,9.0,47,0.00,,,0.00,weatherlink.com 1.10,2013-04-02 22:24:00,
2013-04-02 18:39:00,32.1,15.0,29.85,North,1,2.0,9.0,50,0.00,,,0.00,weatherlink.com 1.10,2013-04-02 22:39:00,
2013-04-02 18:54:00,31.6,14.0,29.86,WSW,255,1.0,11.0,49,0.00,,,0.00,weatherlink.com 1.10,2013-04-02 22:54:00,
2013-04-02 19:09:00,31.1,15.0,29.87,NNW,339,1.0,6.0,51,0.00,,,0.00,weatherlink.com 1.10,2013-04-02 23:09:00,
2013-04-02 19:24:00,30.6,14.0,29.88,East,88,2.0,8.0,51,0.00,,,0.00,weatherlink.com 1.10,2013-04-02 23:24:00,
2013-04-02 19:39:00,30.8,14.0,29.88,SSW,207,2.0,12.0,50,0.00,,,0.00,weatherlink.com 1.10,2013-04-02 23:39:00,
2013-04-02 19:54:00,30.7,15.0,29.88,NE,39,0.0,7.0,52,0.00,,,0.00,weatherlink.com 1.10,2013-04-02 23:54:00,
2013-04-02 20:09:00,30.2,14.0,29.88,SW,231,1.0,7.0,51,0.00,,,0.00,weatherlink.com 1.10,2013-04-03 00:09:00,
2013-04-02 20:24:00,30.1,14.0,29.89,West,269,1.0,11.0,51,0.00,,,0.00,weatherlink.com 1.10,2013-04-03 00:24:00,
2013-04-02 20:54:00,30.0,13.0,29.89,WSW,253,1.0,8.0,50,0.00,,,0.00,weatherlink.com 1.10,2013-04-03 00:54:00,
2013-04-02 21:09:00,29.9,13.0,29.90,WSW,252,2.0,9.0,49,0.00,,,0.00,weatherlink.com 1.10,2013-04-03 01:09:00,
2013-04-02 21:24:00,29.6,13.0,29.90,WNW,290,1.0,9.0,50,0.00,,,0.00,weatherlink.com 1.10,2013-04-03 01:24:00,
2013-04-02 21:39:00,29.3,13.0,29.90,East,90,0.0,4.0,51,0.00,,,0.00,weatherlink.com 1.10,2013-04-03 01:39:00,
2013-04-02 21:54:00,29.4,13.0,29.89,ENE,75,5.0,7.0,50,0.00,,,0.00,weatherlink.com 1.10,2013-04-03 01:54:00,
2013-04-02 22:09:00,29.6,12.0,29.90,NE,46,1.0,5.0,48,0.00,,,0.00,weatherlink.com 1.10,2013-04-03 02:09:00,
2013-04-02 22:24:00,29.4,13.0,29.90,SSW,192,0.0,5.0,50,0.00,,,0.00,weatherlink.com 1.10,2013-04-03 02:24:00,
2013-04-02 22:39:00,29.3,13.0,29.90,East,86,2.0,6.0,50,0.00,,,0.00,weatherlink.com 1.10,2013-04-03 02:39:00,
2013-04-02 22:54:00,29.2,13.0,29.90,West,266,0.0,9.0,52,0.00,,,0.00,weatherlink.com 1.10,2013-04-03 02:54:00,
2013-04-02 23:09:00,28.8,14.0,29.90,WSW,238,0.0,2.0,55,0.00,,,0.00,weatherlink.com 1.10,2013-04-03 03:09:00,
2013-04-02 23:24:00,28.8,15.0,29.90,WNW,295,1.0,6.0,57,0.00,,,0.00,weatherlink.com 1.10,2013-04-03 03:24:00,
2013-04-02 23:39:00,28.8,16.0,29.90,SSW,211,2.0,8.0,58,0.00,,,0.00,weatherlink.com 1.10,2013-04-03 03:39:00,
2013-04-02 23:54:00,28.9,16.0,29.90,North,1,1.0,7.0,59,0.00,,,0.00,weatherlink.com 1.10,2013-04-03 03:54:00,